St. Joseph, KS

7:19 PM CST on November 20, 2019 (GMT -0600)
Rosecrans Memorial

Weather History for KSTJ - September, 2019

Change the Weather History Date:

Sunday, September 29, 2019

  Actual Average Record
Temperature  
Mean Temperature 74 °F 61 °F  
Max Temperature 83 °F 74 °F 94 °F (2002)
Min Temperature 65 °F 49 °F 30 °F (1984)
Degree Days  
Heating Degree Days 0 6  
Month to date heating degree days 5 70  
Since 1 July heating degree days 5 75  
Cooling Degree Days 9 2  
Month to date cooling degree days 288 118  
Year to date cooling degree days 1432 1195  
Growing Degree Days 23 (Base 50)    
Moisture  
Dew Point 68 °F    
Average Humidity 85    
Maximum Humidity 100    
Minimum Humidity 69    
Precipitation  
Precipitation 0.22 in 0.09 in 1.60 in (1954)
Month to date precipitation 4.33 3.34  
Year to date precipitation 33.60 29.64  
Sea Level Pressure  
Sea Level Pressure 29.96 in    
Wind  
Wind Speed 9 mph (ESE)    
Max Wind Speed 20 mph    
Max Gust Speed 27 mph    
Visibility 9 miles    
Events Rain , Thunderstorm    
T = Trace of Precipitation, MM = Missing Value Source: NWS Daily Summary

Daily Weather History Graph

Daily Weather History Graph

Search for Another Location

Airport or City:

Astronomy

Sep. 29, 2019 Rise Set
Actual Time 7:13 AM CDT 7:05 PM CDT
Civil Twilight 6:46 AM CDT 7:32 PM CDT
Nautical Twilight 6:15 AM CDT 8:03 PM CDT
Astronomical Twilight 5:43 AM CDT 8:35 PM CDT
Moon 8:05 AM CDT (9/29) 8:06 PM CDT (9/29)
Length of Visible Light 12h 45m
Length of Day
11h 51m
New Moon, 1% of the Moon is Illuminated
Sep 29
New Moon
Oct 5
First Quarter
Oct 13
Full
Oct 21
Last Quarter
Oct 27
New

Hourly Weather History & Observations

Time (CDT) Temp. Heat Index Dew Point Humidity Pressure Visibility Wind Dir Wind Speed Gust Speed Precip Events Conditions
12:53 AM 64.9 °F - 63.0 °F 93% 29.99 in 10.0 mi SE 4.6 mph - N/A   Overcast
1:41 AM 64.9 °F - 63.0 °F 93% 29.99 in 10.0 mi East 6.9 mph - N/A   Overcast
1:53 AM 64.9 °F - 63.0 °F 93% 29.98 in 10.0 mi East 3.5 mph - N/A   Overcast
2:53 AM 64.9 °F - 64.0 °F 97% 29.97 in 5.0 mi SE 5.8 mph - N/A   Overcast
3:53 AM 66.0 °F - 64.9 °F 96% 29.96 in 8.0 mi ESE 5.8 mph - N/A   Overcast
4:05 AM 66.0 °F - 64.9 °F 96% 29.98 in 8.0 mi SE 5.8 mph - 0.00 in Rain , Thunderstorm Light Thunderstorms and Rain
4:43 AM 66.9 °F - 64.9 °F 93% 29.97 in 10.0 mi ESE 4.6 mph - 0.02 in Thunderstorm Overcast
4:53 AM 66.9 °F - 64.9 °F 93% 29.96 in 10.0 mi ESE 4.6 mph - 0.02 in   Overcast
5:04 AM 66.9 °F - 66.0 °F 97% 29.98 in 10.0 mi Calm Calm - N/A Thunderstorm Overcast
5:40 AM 66.9 °F - 66.0 °F 97% 29.98 in 1.8 mi NNE 3.5 mph - 0.10 in Rain , Thunderstorm Heavy Thunderstorms and Rain
5:49 AM 66.2 °F - 66.2 °F 100% 29.97 in 3.0 mi NE 6.9 mph - 0.12 in Rain , Thunderstorm Light Thunderstorms and Rain
5:53 AM 66.9 °F - 66.0 °F 97% 29.95 in 9.0 mi ENE 4.6 mph - 0.12 in Rain , Thunderstorm Light Thunderstorms and Rain
6:09 AM 68.0 °F - 66.0 °F 93% 29.96 in 2.0 mi ESE 6.9 mph - 0.06 in Rain , Thunderstorm Light Rain
6:18 AM 68.0 °F - 66.0 °F 93% 29.95 in 9.0 mi ESE 8.1 mph - 0.07 in Rain , Thunderstorm Light Rain
6:53 AM 69.1 °F - 66.9 °F 93% 29.95 in 10.0 mi ESE 4.6 mph - 0.07 in   Overcast
7:01 AM 69.1 °F - 66.9 °F 93% 29.96 in 10.0 mi Calm Calm - 0.00 in Rain , Thunderstorm Light Rain
7:16 AM 69.1 °F - 66.9 °F 93% 29.96 in 9.0 mi Calm Calm - 0.00 in   Overcast
7:53 AM 70.0 °F - 68.0 °F 93% 29.96 in 8.0 mi Calm Calm - 0.00 in   Overcast
8:30 AM 71.1 °F - 69.1 °F 93% 29.99 in 9.0 mi ESE 4.6 mph - N/A   Overcast
8:53 AM 72.0 °F - 69.1 °F 91% 29.97 in 9.0 mi East 5.8 mph - N/A   Overcast
9:07 AM 72.0 °F - 69.1 °F 91% 29.98 in 9.0 mi East 8.1 mph - N/A   Overcast
9:53 AM 72.0 °F - 69.1 °F 91% 29.97 in 8.0 mi East 8.1 mph - N/A   Overcast
10:38 AM 72.0 °F - 69.1 °F 91% 29.99 in 9.0 mi East 5.8 mph - N/A   Overcast
10:53 AM 72.0 °F - 69.1 °F 91% 29.97 in 7.0 mi Calm Calm - 0.01 in Rain Light Rain
11:53 AM 72.0 °F - 69.1 °F 91% 29.97 in 10.0 mi NNE 9.2 mph - 0.00 in   Overcast
12:03 PM 73.0 °F - 69.1 °F 87% 29.98 in 10.0 mi NNE 6.9 mph - N/A   Overcast
12:08 PM 73.0 °F - 70.0 °F 90% 29.98 in 10.0 mi NNE 9.2 mph - N/A   Overcast
12:15 PM 73.0 °F - 69.1 °F 87% 29.98 in 10.0 mi NE 8.1 mph - N/A   Overcast
12:53 PM 75.0 °F - 69.1 °F 82% 29.96 in 10.0 mi NE 8.1 mph - N/A   Overcast
1:06 PM 75.0 °F - 70.0 °F 84% 29.97 in 10.0 mi NE 10.4 mph - N/A   Overcast
1:53 PM 77.0 °F - 71.1 °F 82% 29.94 in 10.0 mi East 9.2 mph - N/A   Mostly Cloudy
2:53 PM 77.0 °F - 70.0 °F 79% 29.92 in 10.0 mi East 13.8 mph 20.7 mph N/A   Overcast
3:53 PM 78.1 °F - 70.0 °F 76% 29.90 in 10.0 mi East 13.8 mph 20.7 mph N/A   Mostly Cloudy
4:53 PM 79.0 °F - 72.0 °F 79% 29.89 in 10.0 mi ESE 10.4 mph - N/A   Mostly Cloudy
5:53 PM 82.9 °F 88.0 °F 72.0 °F 69% 29.88 in 10.0 mi SSE 15.0 mph 21.9 mph N/A   Mostly Cloudy
6:53 PM 81.0 °F 84.9 °F 71.1 °F 72% 29.89 in 10.0 mi South 17.3 mph 27.6 mph N/A   Clear
7:53 PM 79.0 °F - 71.1 °F 77% 29.90 in 10.0 mi South 13.8 mph - N/A   Partly Cloudy
8:53 PM 78.1 °F - 71.1 °F 79% 29.92 in 10.0 mi SSE 11.5 mph - N/A   Partly Cloudy
9:53 PM 77.0 °F - 71.1 °F 82% 29.92 in 10.0 mi SSE 12.7 mph - N/A   Clear
10:53 PM 77.0 °F - 71.1 °F 82% 29.92 in 10.0 mi South 12.7 mph 20.7 mph N/A   Clear